Location: Audinghen
(50.8518°N, 1.6129°E)
Time: 16:34:31
(UTC+00:00)

Cosmos 1782 Rocket - Pass Details

Date: 07 August 2020
Orbit: 608 x 631 km, 82.5° (Epoch: 18 September)

Event Time Altitude Azimuth Distance (km) Brightness Sun altitude
Exits shadow 00:12:53 58° 115° (ESE) 715 3.7 -22.7°
Maximum altitude 00:13:10 60° 96° (E) 705 3.7 -22.7°
Drops below altitude 10° 00:17:28 10° 17° (NNE) 1,974 7.2 -22.7°
Sets 00:19:43 0° 14° (NNE) 2,882 8.4 -22.7°
